TimeCDT,TemperatureF,Dew PointF,Humidity,Sea Level PressureIn,VisibilityMPH,Wind Direction,Wind SpeedMPH,Gust SpeedMPH,PrecipitationIn,Events,Conditions,WindDirDegrees,DateUTC
12:52 AM,69.1,64.0,84,30.06,10.0,SSE,6.9,-,N/A,,Clear,160,2013-08-20 05:52:00
1:52 AM,66.9,63.0,87,30.05,10.0,SSE,5.8,-,N/A,,Clear,150,2013-08-20 06:52:00
2:52 AM,66.0,63.0,90,30.04,10.0,SE,5.8,-,N/A,,Clear,140,2013-08-20 07:52:00
3:52 AM,64.9,62.1,90,30.04,10.0,SSE,5.8,-,N/A,,Clear,150,2013-08-20 08:52:00
4:52 AM,64.9,62.1,90,30.05,10.0,SE,6.9,-,N/A,,Clear,140,2013-08-20 09:52:00
5:52 AM,64.9,62.1,90,30.06,10.0,SSE,6.9,-,N/A,,Clear,150,2013-08-20 10:52:00
6:52 AM,64.9,62.1,90,30.06,9.0,SSE,6.9,-,N/A,,Clear,150,2013-08-20 11:52:00
7:52 AM,68.0,64.0,87,30.08,10.0,SSE,6.9,-,N/A,,Clear,150,2013-08-20 12:52:00
8:52 AM,72.0,64.9,78,30.09,10.0,SSE,10.4,-,N/A,,Clear,160,2013-08-20 13:52:00
9:52 AM,75.9,66.0,71,30.10,10.0,South,10.4,-,N/A,,Clear,190,2013-08-20 14:52:00
10:52 AM,79.0,66.0,64,30.10,10.0,SW,5.8,-,N/A,,Clear,220,2013-08-20 15:52:00
11:52 AM,81.0,66.0,60,30.09,10.0,South,6.9,-,N/A,,Scattered Clouds,170,2013-08-20 16:52:00
12:52 PM,82.0,64.9,56,30.08,10.0,South,5.8,-,N/A,,Mostly Cloudy,170,2013-08-20 17:52:00
1:52 PM,82.9,61.0,47,30.06,10.0,Calm,Calm,-,N/A,,Clear,0,2013-08-20 18:52:00
2:52 PM,84.0,63.0,49,30.06,10.0,SSE,5.8,-,N/A,,Partly Cloudy,150,2013-08-20 19:52:00
3:52 PM,84.0,62.1,47,30.04,10.0,SSW,4.6,-,N/A,,Clear,200,2013-08-20 20:52:00
4:52 PM,84.0,64.0,51,30.03,10.0,SW,6.9,-,N/A,,Clear,220,2013-08-20 21:52:00
5:52 PM,82.9,63.0,51,30.03,10.0,SSW,9.2,-,N/A,,Partly Cloudy,200,2013-08-20 22:52:00
6:52 PM,81.0,64.9,58,30.02,10.0,South,5.8,-,N/A,,Clear,190,2013-08-20 23:52:00
7:52 PM,78.1,64.9,64,30.03,10.0,South,4.6,-,N/A,,Clear,180,2013-08-21 00:52:00
8:52 PM,73.9,64.0,71,30.04,10.0,SSE,5.8,-,N/A,,Clear,160,2013-08-21 01:52:00
9:52 PM,73.0,63.0,71,30.05,10.0,SE,5.8,-,N/A,,Clear,140,2013-08-21 02:52:00
10:52 PM,72.0,63.0,73,30.06,10.0,SSE,8.1,-,N/A,,Clear,150,2013-08-21 03:52:00
11:52 PM,70.0,62.1,76,30.06,10.0,SSE,6.9,-,N/A,,Clear,150,2013-08-21 04:52:00